Date String (YYYY-MM-DD hh:mm:ss) UTC,Instrument flags,Ambient pressure (hPa),Sample flow (lpm),Bypass flow (lpm),Sample temperature (°C),Ambient temperature (°C),ASC tube jacket temperature (°C),LED temperature (°C),Box temperature (°C),Sample RH (%),Span deviation,Mass concentration (μg/m³),Mass concentration (μg/m³),Mass concentration (μg/m³)
DateTimeUTC,F1_M11,P_M11,Q1_M11,Q2_M11,T1_M11,T2_M11,T3_M11,T4_M11,T5_M11,U1_M11,ZSPAN_M11,X0_M11,X2_M11,X1_M11
2022-02-07 08:00:00,,0833.1,4.99,0.00,22.5,21.7,00.0,31.5,24.2,05.5,0000.0,0000.82,0000.49,0000.41
2022-02-07 08:01:00,,0833.1,5.01,0.00,22.4,21.7,00.0,31.5,24.1,05.5,0000.0,0000.79,0000.48,0000.40
2022-02-07 08:02:00,,0833.1,4.99,0.00,22.4,21.6,00.0,31.4,24.1,05.5,0000.0,0000.78,0000.47,0000.40
2022-02-07 08:03:00,,0833.1,4.99,0.00,22.4,21.8,00.0,31.4,24.1,05.6,0000.0,0000.79,0000.47,0000.40
2022-02-07 08:04:00,,0833.2,5.01,0.00,22.5,22.4,00.0,31.5,24.3,05.6,0000.0,0000.86,0000.53,0000.44
2022-02-07 08:05:00,,0833.1,4.99,0.00,22.6,23.1,00.0,31.5,24.5,05.6,0000.0,0001.00,0000.66,0000.58
2022-02-07 08:06:00,,0833.1,5.00,0.00,22.7,23.2,00.0,31.5,24.6,05.6,0000.0,0001.23,0000.81,0000.72
2022-02-07 08:07:00,,0833.1,5.00,0.00,22.7,23.0,00.0,31.6,24.6,05.5,0000.0,0001.43,0001.00,0000.90
2022-02-07 08:08:00,,0833.2,5.00,0.00,22.8,22.8,00.0,31.6,24.6,05.3,0000.0,0001.39,0001.01,0000.93
2022-02-07 08:09:00,,0833.1,5.00,0.00,22.8,22.6,00.0,31.6,24.6,05.3,0000.0,0001.37,0001.01,0000.92
2022-02-07 08:10:00,,0833.2,5.02,0.00,22.8,22.5,00.0,31.6,24.6,05.3,0000.0,0001.34,0001.00,0000.92
2022-02-07 08:11:00,,0833.1,4.99,0.00,22.7,22.4,00.0,31.6,24.5,05.5,0000.0,0001.30,0001.03,0000.94
2022-02-07 08:12:00,,0833.2,4.99,0.00,22.7,22.3,00.0,31.6,24.5,05.7,0000.0,0001.37,0001.05,0000.95
2022-02-07 08:13:00,,0833.1,5.01,0.00,22.7,22.2,00.0,31.6,24.4,05.7,0000.0,0001.38,0001.06,0000.96
2022-02-07 08:14:00,,0833.1,5.00,0.00,22.7,22.1,00.0,31.6,24.4,05.8,0000.0,0001.39,0001.07,0000.97
2022-02-07 08:15:00,,0833.1,5.00,0.00,22.6,22.0,00.0,31.6,24.3,05.7,0000.0,0001.34,0001.04,0000.94
2022-02-07 08:16:00,,0833.1,5.00,0.00,22.6,22.0,00.0,31.6,24.3,05.7,0000.0,0001.26,0000.93,0000.82
2022-02-07 08:17:00,,0833.1,5.00,0.00,22.6,21.9,00.0,31.6,24.2,05.7,0000.0,0001.11,0000.82,0000.72
2022-02-07 08:18:00,,0833.2,4.99,0.00,22.6,21.8,00.0,31.6,24.2,05.7,0000.0,0000.89,0000.63,0000.53
2022-02-07 08:19:00,,0833.2,5.01,0.00,22.5,21.8,00.0,31.6,24.2,05.7,0000.0,0000.83,0000.58,0000.49
2022-02-07 08:20:00,,0833.1,4.99,0.00,22.5,21.8,00.0,31.6,24.1,05.7,0000.0,0000.85,0000.59,0000.50
2022-02-07 08:21:00,,0833.1,5.00,0.00,22.5,21.7,00.0,31.5,24.1,05.7,0000.0,0000.91,0000.61,0000.52
2022-02-07 08:22:00,,0833.1,4.99,0.00,22.4,21.7,00.0,31.5,24.1,05.6,0000.0,0000.88,0000.60,0000.52
2022-02-07 08:23:00,,0833.1,5.00,0.00,22.4,21.6,00.0,31.5,24.0,05.6,0000.0,0000.85,0000.59,0000.51
2022-02-07 08:24:00,,0833.1,5.00,0.00,22.4,21.6,00.0,31.5,24.0,05.5,0000.0,0000.85,0000.58,0000.50
2022-02-07 08:25:00,,0833.1,5.02,0.00,22.4,21.6,00.0,31.5,24.0,05.5,0000.0,0000.88,0000.59,0000.50
2022-02-07 08:26:00,,0833.1,4.98,0.00,22.3,21.6,00.0,31.5,24.0,05.5,0000.0,0000.89,0000.59,0000.49
2022-02-07 08:27:00,,0833.1,4.99,0.00,22.4,22.1,00.0,31.5,24.1,05.5,0000.0,0000.86,0000.57,0000.48
2022-02-07 08:28:00,,0833.1,5.01,0.00,22.5,22.8,00.0,31.5,24.4,05.4,0000.0,0000.94,0000.57,0000.47
2022-02-07 08:29:00,,0833.1,5.00,0.00,22.7,23.3,00.0,31.5,24.6,05.4,0000.0,0000.92,0000.56,0000.47
2022-02-07 08:30:00,,0833.1,5.00,0.00,22.7,23.1,00.0,31.6,24.6,05.4,0000.0,0000.91,0000.55,0000.46
2022-02-07 08:31:00,,0833.1,5.00,0.00,22.7,22.9,00.0,31.6,24.6,05.4,0000.0,0001.29,0000.55,0000.45
2022-02-07 08:32:00,,0833.1,5.00,0.00,22.7,22.7,00.0,31.6,24.5,05.4,0000.0,0001.40,0000.52,0000.44
2022-02-07 08:33:00,,0833.1,5.02,0.00,22.7,22.5,00.0,31.6,24.5,05.4,0000.0,0001.38,0000.52,0000.44
2022-02-07 08:34:00,,0833.1,4.98,0.00,22.7,22.4,00.0,31.6,24.4,05.4,0000.0,0001.37,0000.50,0000.44
2022-02-07 08:35:00,,0833.1,5.00,0.00,22.7,22.2,00.0,31.6,24.4,05.4,0000.0,0001.42,0000.50,0000.43
2022-02-07 08:36:00,,0833.1,5.01,0.00,22.6,22.1,00.0,31.6,24.3,05.4,0000.0,0001.40,0000.49,0000.43
2022-02-07 08:37:00,,0833.2,4.99,0.00,22.6,22.0,00.0,31.6,24.3,05.4,0000.0,0001.43,0000.51,0000.44
2022-02-07 08:38:00,,0833.1,5.00,0.00,22.6,22.0,00.0,31.6,24.3,05.4,0000.0,0001.43,0000.51,0000.44
2022-02-07 08:39:00,,0833.1,5.00,0.00,22.6,21.9,00.0,31.6,24.3,05.4,0000.0,0001.29,0000.48,0000.44
2022-02-07 08:40:00,,0833.1,5.00,0.00,22.5,21.9,00.0,31.6,24.3,05.4,0000.0,0001.29,0000.48,0000.44
2022-02-07 08:41:00,,0833.1,5.00,0.00,22.6,21.9,00.0,31.6,24.3,05.4,0000.0,0001.29,0000.48,0000.44
2022-02-07 08:42:00,,0833.1,4.99,0.00,22.5,21.8,00.0,31.5,24.3,05.3,0000.0,0000.88,0000.48,0000.44
2022-02-07 08:43:00,,0833.2,5.00,0.00,22.5,21.8,00.0,31.5,24.2,05.4,0000.0,0000.70,0000.47,0000.43
2022-02-07 08:44:00,,0833.3,5.01,0.00,22.5,21.8,00.0,31.5,24.2,05.4,0000.0,0000.69,0000.46,0000.43
2022-02-07 08:45:00,,0833.3,4.98,0.00,22.5,21.7,00.0,31.5,24.2,05.4,0000.0,0000.64,0000.45,0000.42
2022-02-07 08:46:00,,0833.3,5.02,0.00,22.5,21.7,00.0,31.5,24.2,05.5,0000.0,0000.58,0000.45,0000.42
2022-02-07 08:47:00,,0833.3,4.99,0.00,22.4,21.7,00.0,31.5,24.1,05.5,0000.0,0000.55,0000.44,0000.41
2022-02-07 08:48:00,,0833.3,5.01,0.00,22.4,21.7,00.0,31.5,24.1,05.5,0000.0,0000.49,0000.41,0000.40
2022-02-07 08:49:00,,0833.3,4.99,0.00,22.4,21.6,00.0,31.5,24.1,05.6,0000.0,0000.47,0000.40,0000.39
2022-02-07 08:50:00,,0833.3,5.00,0.00,22.4,21.6,00.0,31.4,24.1,05.5,0000.0,0000.46,0000.39,0000.39
2022-02-07 08:51:00,,0833.4,5.02,0.00,22.4,21.8,00.0,31.5,24.1,05.5,0000.0,0000.54,0000.39,0000.39
2022-02-07 08:52:00,,0833.4,5.00,0.00,22.5,22.5,00.0,31.5,24.3,05.4,0000.0,0000.84,0000.41,0000.38
2022-02-07 08:53:00,,0833.4,4.99,0.00,22.6,23.2,00.0,31.5,24.6,05.4,0000.0,0000.85,0000.41,0000.38
2022-02-07 08:54:00,,0833.4,5.00,0.00,22.7,23.2,00.0,31.5,24.7,05.3,0000.0,0001.10,0000.42,0000.38
2022-02-07 08:55:00,,0833.3,5.00,0.00,22.7,23.0,00.0,31.6,24.7,05.3,0000.0,0001.68,0000.44,0000.38
2022-02-07 08:56:00,,0833.3,5.00,0.00,22.7,22.8,00.0,31.6,24.6,05.3,0000.0,0001.69,0000.45,0000.39
2022-02-07 08:57:00,,0833.3,5.00,0.00,22.7,22.6,00.0,31.6,24.6,05.2,0000.0,0001.70,0000.45,0000.39
2022-02-07 08:58:00,,0833.3,5.00,0.00,22.7,22.5,00.0,31.6,24.5,05.2,0000.0,0001.70,0000.45,0000.39
2022-02-07 08:59:00,,0833.3,4.99,0.00,22.7,22.4,00.0,31.6,24.5,05.2,0000.0,0001.73,0000.47,0000.40
